Location: Mannheim
(49.4880°N, 8.4650°E)
Time: 01:48:15
(UTC+01:00)

ISS - Pass Details

Date: 26 January 2023
Orbit: 413 x 419 km, 51.6° (Epoch: 30 January)

Event Time Altitude Azimuth Distance (km) Brightness Sun altitude
Rises 18:30:08 0° 274° (W) 2,367 1.6 -12.7°
Reaches altitude 10° 18:32:16 10° 279° (W) 1,503 0.2 -13.1°
Maximum altitude 18:35:35 57° 359° (N) 501 -3.5 -13.6°
Enters shadow 18:37:11 27° 68° (ENE) 845 -2.8 -13.8°
